GW3949 Weather Reports


time (UTC)temp
C
wind
direction
speed
KPH
gust
KPH
rain 1hr
cm
rain 24hr
cm
rain mn
cm
humidity
%
barometer
mb
20260504110405 8 220 11.3 19.3 0.00 0.00 0.00 58 1010.7
20260504100405 7 220 8.0 12.9 0.00 0.00 0.00 60 1010.8
20260504081905 8 252 9.7 19.3 0.00 0.00 0.00 59 1011.2
20260504081404 8 257 11.3 20.9 0.00 0.00 0.00 59 1011.2
20260504080905 8 258 9.7 19.3 0.00 0.00 0.00 59 1011.1
20260504080404 8 289 9.7 19.3 0.00 0.00 0.00 59 1011.2
20260504070405 8 235 8.0 11.3 0.00 0.00 0.00 58 1011.1
20260504045405 9 296 9.7 14.5 0.00 0.00 0.00 57 1011.4
20260504044905 9 286 6.4 19.3 0.00 0.00 0.00 57 1011.4
20260504044404 9 309 8.0 11.3 0.00 0.00 0.00 57 1011.4
20260504043404 9 288 6.4 12.9 0.00 0.00 0.00 57 1011.4
20260504042904 9 317 8.0 12.9 0.00 0.00 0.00 57 1011.3
20260504042405 9 322 8.0 12.9 0.00 0.00 0.00 57 1011.2
20260504041904 9 321 4.8 11.3 0.00 0.00 0.00 57 1011.2
20260504041404 9 296 8.0 16.1 0.00 0.00 0.00 57 1011.1
20260504040904 9 294 4.8 12.9 0.00 0.00 0.00 57 1011.1
20260504040405 9 328 6.4 14.5 0.00 0.00 0.00 57 1011.1
20260504035404 9 3 3.2 9.7 0.00 0.00 0.00 57 1011.1
20260504034904 9 278 6.4 12.9 0.00 0.00 0.00 57 1011.1
20260504034404 9 308 6.4 14.5 0.00 0.00 0.00 57 1011.1
20260504033907 9 302 6.4 12.9 0.00 0.00 0.00 57 1011.0
20260504033404 9 326 4.8 9.7 0.00 0.00 0.00 57 1011.0
20260504032904 9 311 6.4 11.3 0.00 0.00 0.00 57 1011.0
20260504032404 9 308 4.8 9.7 0.00 0.00 0.00 57 1011.1
20260504031904 9 321 4.8 11.3 0.00 0.00 0.00 56 1011.1
20260504031404 9 278 3.2 11.3 0.00 0.00 0.00 57 1011.1
20260504030904 9 327 6.4 14.5 0.00 0.00 0.00 56 1011.0
20260504025904 9 333 4.8 14.5 0.00 0.00 0.00 56 1011.1
20260504024904 9 330 3.2 9.7 0.00 0.00 0.00 56 1011.1
20260504024403 9 342 4.8 9.7 0.00 0.00 0.00 56 1011.1
20260504023904 9 263 4.8 11.3 0.00 0.00 0.00 56 1011.1
20260504023405 9 326 8.0 14.5 0.00 0.00 0.00 56 1011.1
20260504022404 10 328 6.4 11.3 0.00 0.00 0.00 55 1011.1
20260504021905 10 311 8.0 14.5 0.00 0.00 0.00 55 1011.2
20260504020904 10 295 4.8 12.9 0.00 0.00 0.00 55 1011.2
20260504020404 10 325 4.8 11.3 0.00 0.00 0.00 54 1011.2
20260504014404 10 287 6.4 19.3 0.00 0.00 0.00 54 1011.1
20260504013905 10 285 8.0 14.5 0.00 0.00 0.00 54 1011.1
20260504013404 10 267 4.8 12.9 0.00 0.00 0.00 54 1011.0
20260504012905 10 245 6.4 14.5 0.00 0.00 0.00 54 1011.0
20260504012404 10 282 4.8 11.3 0.00 0.00 0.00 53 1011.0
20260504011404 10 260 4.8 9.7 0.00 0.00 0.00 53 1010.9
20260504010404 10 316 6.4 12.9 0.00 0.00 0.00 53 1010.9
20260504005904 10 331 6.4 12.9 0.00 0.00 0.00 52 1010.9
20260504005405 10 310 8.0 12.9 0.00 0.00 0.00 52 1010.8
20260504004904 10 300 6.4 14.5 0.00 0.00 0.00 52 1010.7
20260504004404 10 342 8.0 16.1 0.00 0.00 0.00 52 1010.7
20260504003905 10 344 8.0 19.3 0.00 0.00 0.00 52 1010.7
20260504003404 10 322 8.0 14.5 0.00 0.00 0.00 51 1010.6
20260504002904 10 295 6.4 14.5 0.00 0.00 0.00 51 1010.5
20260504002404 10 323 6.4 11.3 0.00 0.00 0.00 51 1010.5
20260504001904 11 336 4.8 11.3 0.00 0.00 0.00 50 1010.4
20260504001403 11 281 6.4 12.9 0.00 0.00 0.00 50 1010.3
20260504000404 11 349 8.0 14.5 0.00 0.00 0.00 49 1010.3
20260503235904 11 310 6.4 11.3 0.00 0.00 0.00 49 1010.3
20260503235404 11 341 8.0 19.3 0.00 0.00 0.00 49 1010.2
20260503234904 11 349 8.0 19.3 0.00 0.00 0.00 49 1010.2
20260503234404 11 344 9.7 20.9 0.00 0.00 0.00 48 1010.2
20260503233904 11 317 6.4 20.9 0.00 0.00 0.00 48 1010.2
20260503233404 11 334 11.3 19.3 0.00 0.00 0.00 48 1010.0
20260503232904 11 351 11.3 19.3 0.00 0.00 0.00 48 1010.0
20260503231904 11 0 11.3 19.3 0.00 0.00 0.00 48 1009.9
20260503231404 11 0 14.5 32.2 0.00 0.00 0.00 47 1009.9
20260503230904 12 351 11.3 22.5 0.00 0.00 0.00 47 1009.9
20260503230404 12 0 16.1 29.0 0.00 0.00 0.00 46 1010.0
20260503225904 12 358 11.3 24.1 0.00 0.00 0.00 46 1009.9
20260503225404 12 340 14.5 29.0 0.00 0.00 0.00 46 1010.0
20260503224904 12 5 8.0 20.9 0.00 0.00 0.00 47 1009.9
20260503224404 12 356 16.1 29.0 0.00 0.00 0.00 46 1009.9
20260503223904 12 358 14.5 25.7 0.00 0.00 0.00 46 1009.9
20260503222903 12 354 16.1 27.4 0.00 0.00 0.00 46 1009.9
20260503222404 12 0 9.7 24.1 0.00 0.00 0.00 47 1009.9
20260503221903 12 352 14.5 27.4 0.00 0.00 0.00 46 1009.9
20260503221404 12 356 16.1 27.4 0.00 0.00 0.00 46 1009.9
20260503220904 12 353 17.7 37.0 0.00 0.00 0.00 46 1009.9
20260503220404 12 354 11.3 20.9 0.00 0.00 0.00 47 1009.9
20260503215404 12 10 14.5 25.7 0.00 0.00 0.00 47 1009.9
20260503214903 12 353 16.1 25.7 0.00 0.00 0.00 46 1009.9
20260503214404 12 358 17.7 25.7 0.00 0.00 0.00 46 1009.9
20260503213904 12 0 14.5 20.9 0.00 0.00 0.00 46 1009.9
20260503213404 12 352 17.7 29.0 0.00 0.00 0.00 46 1009.8
20260503212904 12 354 12.9 20.9 0.00 0.00 0.00 47 1009.8
20260503212404 12 0 19.3 29.0 0.00 0.00 0.00 46 1009.7
20260503211904 12 356 14.5 22.5 0.00 0.00 0.00 45 1009.7
20260503211403 12 0 16.1 27.4 0.00 0.00 0.00 46 1009.6
20260503210904 12 344 14.5 24.1 0.00 0.00 0.00 46 1009.8
20260503210404 12 338 12.9 24.1 0.00 0.00 0.00 46 1009.8
20260503205404 11 350 17.7 27.4 0.00 0.00 0.00 45 1009.7
20260503204904 11 0 16.1 32.2 0.00 0.00 0.00 45 1009.6
20260503203904 11 0 19.3 32.2 0.00 0.00 0.00 45 1009.7
20260503203404 11 346 14.5 24.1 0.00 0.00 0.00 46 1009.8
20260503202904 11 356 14.5 27.4 0.00 0.00 0.00 46 1009.7
20260503202403 11 356 12.9 27.4 0.00 0.00 0.00 45 1009.8
20260503201904 11 0 20.9 33.8 0.00 0.00 0.00 45 1009.8
20260503201403 11 0 16.1 27.4 0.00 0.00 0.00 46 1009.8
20260503200904 11 353 12.9 24.1 0.00 0.00 0.00 46 1009.8
20260503200403 11 358 19.3 25.7 0.00 0.00 0.00 45 1009.9
20260503195903 11 2 11.3 22.5 0.00 0.00 0.00 46 1009.8
20260503195404 11 346 14.5 24.1 0.00 0.00 0.00 45 1009.9
20260503194904 11 0 16.1 27.4 0.00 0.00 0.00 46 1010.0
20260503194404 11 0 14.5 25.7 0.00 0.00 0.00 46 1010.2
20260503193904 11 353 17.7 32.2 0.00 0.00 0.00 45 1010.2
20260503193404 11 0 16.1 40.2 0.00 0.00 0.00 45 1010.2
20260503191905 10 358 20.9 38.6 0.00 0.00 0.00 46 1010.2
20260503191405 10 345 17.7 32.2 0.00 0.00 0.00 46 1010.2
20260503190906 10 0 16.1 27.4 0.00 0.00 0.00 46 1010.3
20260503190405 10 0 22.5 37.0 0.00 0.00 0.00 47 1010.4
20260503185405 10 337 11.3 25.7 0.00 0.00 0.00 50 1010.4
20260503184905 10 354 19.3 32.2 0.00 0.00 0.00 48 1010.5
20260503183405 9 358 19.3 38.6 0.00 0.00 0.00 49 1010.8
20260503182906 9 349 16.1 27.4 0.00 0.00 0.00 50 1010.8
20260503182405 9 339 20.9 33.8 0.00 0.00 0.00 49 1010.9
20260503181905 10 0 17.7 24.1 0.00 0.00 0.00 48 1010.8
20260503181406 9 355 8.0 20.9 0.00 0.00 0.00 50 1010.8
20260503180906 8 2 14.5 27.4 0.00 0.00 0.00 49 1010.8
20260503180405 8 0 19.3 41.8 0.00 0.00 0.00 49 1010.9
20260503175905 8 356 17.7 32.2 0.00 0.00 0.00 49 1010.9
20260503175405 8 356 22.5 37.0 0.00 0.00 0.00 49 1010.9
20260503173405 8 0 14.5 32.2 0.00 0.00 0.00 51 1011.0
20260503172405 7 359 19.3 33.8 0.00 0.00 0.00 52 1011.2
20260503171905 8 358 16.1 32.2 0.00 0.00 0.00 51 1011.4
20260503171405 8 11 22.5 32.2 0.00 0.00 0.00 51 1011.3
20260503170906 7 353 14.5 32.2 0.00 0.00 0.00 52 1011.3
20260503170405 8 0 20.9 27.4 0.00 0.00 0.00 51 1011.4
20260503150405 6 0 16.1 29.0 0.00 0.03 0.00 55 1011.6
20260503131405 3 4 11.3 25.7 0.00 0.03 0.00 76 1011.9